�������l�o���
Date,Time,MP-1(��Sv/h),MP-2(��Sv/h),MP-3(��Sv/h),MP-4(��Sv/h),MP-5(��Sv/h),MP-6(��Sv/h),MP-7(��Sv/h),����,����(m/s),���J
2022/04/22,00:00,0.158,0.144,0.225,0.217,0.221,0.125,0.082,��쐼,4.2,�L
2022/04/22,00:10,0.157,0.144,0.223,0.218,0.222,0.125,0.081,�쐼,4.1,�L
2022/04/22,00:20,0.157,0.144,0.223,0.215,0.220,0.125,0.082,�쐼,5.1,�L
2022/04/22,00:30,0.157,0.144,0.223,0.215,0.222,0.124,0.082,��쐼,4.4,�L
2022/04/22,00:40,0.157,0.143,0.223,0.216,0.221,0.124,0.083,��쐼,3.3,�L
2022/04/22,00:50,0.155,0.143,0.223,0.216,0.221,0.125,0.082,��쐼,2.6,�L
2022/04/22,01:00,0.156,0.143,0.221,0.215,0.221,0.124,0.082,��,2.4,�L
2022/04/22,01:10,0.156,0.143,0.221,0.215,0.220,0.124,0.081,��,2.7,�L
2022/04/22,01:20,0.156,0.143,0.221,0.216,0.221,0.125,0.082,�쓌,4.0,�L
2022/04/22,01:30,0.157,0.144,0.222,0.215,0.221,0.125,0.083,��쓌,3.5,�L
2022/04/22,01:40,0.157,0.144,0.222,0.215,0.222,0.125,0.083,��,3.0,�L
2022/04/22,01:50,0.157,0.145,0.219,0.214,0.220,0.125,0.081,��쐼,2.1,�L
2022/04/22,02:00,0.156,0.144,0.221,0.214,0.221,0.125,0.082,��쐼,1.6,�L
2022/04/22,02:10,0.156,0.143,0.220,0.215,0.219,0.125,0.082,��쐼,1.7,�L
2022/04/22,02:20,0.156,0.144,0.219,0.212,0.219,0.124,0.083,�쐼,3.2,�L
2022/04/22,02:30,0.156,0.143,0.219,0.212,0.221,0.123,0.082,��쐼,3.9,�L
2022/04/22,02:40,0.156,0.144,0.219,0.212,0.219,0.124,0.082,��쐼,3.8,�L
2022/04/22,02:50,0.154,0.142,0.218,0.210,0.220,0.123,0.083,��,3.9,�L
2022/04/22,03:00,0.154,0.142,0.217,0.211,0.217,0.123,0.082,��,4.0,�L
2022/04/22,03:10,0.153,0.142,0.215,0.207,0.218,0.122,0.081,��,3.9,�L
2022/04/22,03:20,0.150,0.139,0.212,0.205,0.214,0.119,0.081,��,4.8,�L
2022/04/22,03:30,0.148,0.140,0.212,0.204,0.215,0.119,0.080,��,5.3,�L
2022/04/22,03:40,0.149,0.140,0.215,0.208,0.217,0.119,0.081,��쓌,4.5,�L
2022/04/22,03:50,0.150,0.140,0.216,0.208,0.218,0.120,0.080,��쓌,4.8,�L
2022/04/22,04:00,0.150,0.142,0.214,0.210,0.218,0.120,0.081,��쓌,5.7,�L
2022/04/22,04:10,0.151,0.141,0.217,0.210,0.219,0.122,0.081,��쓌,4.9,�L
2022/04/22,04:20,0.150,0.140,0.215,0.209,0.218,0.119,0.080,��쓌,4.8,�L
2022/04/22,04:30,0.151,0.141,0.216,0.210,0.217,0.120,0.080,��쓌,5.0,�L
2022/04/22,04:40,0.149,0.139,0.215,0.208,0.219,0.119,0.079,��쓌,4.4,�L
2022/04/22,04:50,0.149,0.141,0.216,0.211,0.217,0.119,0.079,��쓌,3.6,�L
2022/04/22,05:00,0.151,0.140,0.216,0.209,0.218,0.119,0.081,�쓌,3.7,�L
2022/04/22,05:10,0.150,0.140,0.215,0.210,0.217,0.120,0.080,�쓌,2.7,�L
2022/04/22,05:20,0.152,0.142,0.217,0.210,0.218,0.120,0.081,���쓌,1.2,�L
2022/04/22,05:30,0.150,0.141,0.217,0.209,0.218,0.120,0.080,�k��,2.4,�L
2022/04/22,05:40,0.150,0.141,0.216,0.210,0.218,0.121,0.080,�k��,4.5,�L
2022/04/22,05:50,0.152,0.140,0.218,0.210,0.218,0.120,0.079,�k��,6.9,�L
2022/04/22,06:00,0.150,0.140,0.216,0.210,0.218,0.121,0.079,�k�k��,7.9,��
2022/04/22,06:10,0.150,0.140,0.216,0.210,0.218,0.119,0.079,�k��,8.4,�L
2022/04/22,06:20,0.149,0.138,0.215,0.208,0.216,0.119,0.078,�k��,8.3,�L
2022/04/22,06:30,0.150,0.140,0.214,0.210,0.218,0.119,0.078,�k�k��,7.8,�L
2022/04/22,06:40,0.150,0.139,0.216,0.208,0.217,0.119,0.079,�k�k��,6.2,�L
2022/04/22,06:50,0.150,0.139,0.215,0.210,0.218,0.119,0.078,�k�k��,5.3,�L
2022/04/22,07:00,0.150,0.139,0.215,0.209,0.216,0.119,0.078,�k�k��,5.9,��
2022/04/22,07:10,0.148,0.138,0.216,0.210,0.216,0.118,0.077,�k�k��,6.1,��
2022/04/22,07:20,0.149,0.138,0.215,0.208,0.217,0.117,0.077,�k�k��,4.0,�L
2022/04/22,07:30,0.148,0.138,0.216,0.209,0.218,0.118,0.077,�k�k��,2.9,�L
2022/04/22,07:40,0.150,0.138,0.214,0.206,0.215,0.117,0.077,�k�k��,2.3,�L
2022/04/22,07:50,0.149,0.138,0.215,0.207,0.217,0.118,0.077,�k�k��,2.3,��
2022/04/22,08:00,0.148,0.137,0.214,0.206,0.216,0.117,0.076,�k,3.2,��
2022/04/22,08:10,0.149,0.138,0.214,0.209,0.217,0.118,0.076,�k�k��,3.8,��
2022/04/22,08:20,0.148,0.137,0.215,0.207,0.214,0.117,0.075,�k�k��,4.5,��
2022/04/22,08:30,0.149,0.138,0.214,0.208,0.217,0.116,0.076,�k�k��,3.7,��
2022/04/22,08:40,0.149,0.137,0.215,0.208,0.213,0.116,0.076,�k�k��,3.5,��
2022/04/22,08:50,0.149,0.138,0.214,0.207,0.216,0.118,0.075,�k,3.3,��
2022/04/22,09:00,0.148,0.137,0.213,0.208,0.216,0.117,0.077,�k,3.1,��
2022/04/22,09:10,0.148,0.137,0.216,0.209,0.213,0.117,0.075,�k,2.3,��
2022/04/22,09:20,0.148,0.137,0.214,0.206,0.217,0.118,0.076,�k,3.3,��
2022/04/22,09:30,0.148,0.137,0.214,0.209,0.216,0.117,0.076,�k�k��,3.5,��
2022/04/22,09:40,0.150,0.137,0.216,0.208,0.215,0.116,0.075,�k,3.6,��
2022/04/22,09:50,0.148,0.137,0.214,0.208,0.217,0.117,0.076,�k��,3.9,��
2022/04/22,10:00,0.149,0.137,0.217,0.210,0.215,0.117,0.076,�k��,5.0,��
2022/04/22,10:10,0.148,0.137,0.216,0.206,0.216,0.117,0.075,���k��,6.4,��
2022/04/22,10:20,0.150,0.138,0.214,0.209,0.217,0.118,0.076,���k��,4.0,��
2022/04/22,10:30,0.149,0.137,0.217,0.210,0.215,0.117,0.077,��,1.5,��
2022/04/22,10:40,0.149,0.138,0.214,0.209,0.214,0.116,0.076,���k��,1.7,��
2022/04/22,10:50,0.149,0.137,0.213,0.208,0.216,0.116,0.077,�k��,2.9,��
2022/04/22,11:00,0.148,0.137,0.218,0.211,0.216,0.117,0.076,�k�k��,1.9,��
2022/04/22,11:10,0.150,0.138,0.217,0.208,0.215,0.117,0.076,�k,2.0,��
2022/04/22,11:20,0.150,0.136,0.216,0.208,0.215,0.119,0.076,�k��,2.5,��
2022/04/22,11:30,0.148,0.139,0.217,0.211,0.218,0.118,0.077,��,7.2,��
2022/04/22,11:40,0.149,0.137,0.218,0.210,0.217,0.118,0.076,���k��,7.3,��
2022/04/22,11:50,0.149,0.138,0.215,0.209,0.216,0.118,0.076,�k��,3.8,��
2022/04/22,12:00,0.149,0.139,0.216,0.208,0.215,0.120,0.077,��,1.1,��
2022/04/22,12:10,0.150,0.139,0.214,0.209,0.214,0.118,0.077,��,2.8,��
2022/04/22,12:20,0.150,0.137,0.215,0.212,0.218,0.118,0.075,���k��,5.6,��
2022/04/22,12:30,0.148,0.137,0.217,0.210,0.219,0.118,0.077,���k��,7.0,��
2022/04/22,12:40,0.148,0.136,0.221,0.210,0.218,0.119,0.077,��,6.2,��
2022/04/22,12:50,0.150,0.139,0.218,0.210,0.216,0.119,0.077,��,8.2,��
2022/04/22,13:00,0.150,0.139,0.218,0.210,0.216,0.119,0.077,��,6.5,��
2022/04/22,13:10,0.150,0.139,0.217,0.209,0.215,0.119,0.076,���k��,7.7,��
2022/04/22,13:20,0.149,0.138,0.216,0.208,0.216,0.118,0.076,���k��,9.8,��
2022/04/22,13:30,0.150,0.138,0.216,0.210,0.216,0.119,0.076,���k��,8.9,��
2022/04/22,13:40,0.152,0.138,0.217,0.209,0.217,0.117,0.076,��,9.8,��
2022/04/22,13:50,0.152,0.137,0.217,0.210,0.216,0.119,0.076,���k��,8.1,��
2022/04/22,14:00,0.150,0.138,0.217,0.210,0.215,0.119,0.077,��,1.5,��
2022/04/22,14:10,0.149,0.138,0.218,0.210,0.216,0.119,0.075,��쓌,5.1,��
2022/04/22,14:20,0.150,0.137,0.217,0.210,0.217,0.119,0.077,��쓌,5.6,��
2022/04/22,14:30,0.150,0.139,0.217,0.213,0.216,0.119,0.076,��쓌,5.5,��
2022/04/22,14:40,0.152,0.139,0.218,0.214,0.216,0.119,0.076,��쓌,5.1,��
2022/04/22,14:50,0.150,0.138,0.222,0.212,0.215,0.120,0.077,�쓌,4.7,��
2022/04/22,15:00,0.150,0.140,0.220,0.211,0.216,0.119,0.077,�쓌,4.4,��
2022/04/22,15:10,0.149,0.139,0.218,0.214,0.220,0.120,0.077,��쓌,3.9,��
2022/04/22,15:20,0.152,0.138,0.220,0.213,0.219,0.120,0.077,��쓌,4.7,��
2022/04/22,15:30,0.152,0.140,0.221,0.212,0.217,0.119,0.076,��쓌,5.0,��
2022/04/22,15:40,0.150,0.139,0.219,0.213,0.216,0.119,0.077,��쓌,3.8,��
2022/04/22,15:50,0.149,0.139,0.221,0.212,0.217,0.119,0.076,��쓌,4.4,��
2022/04/22,16:00,0.151,0.140,0.219,0.214,0.220,0.119,0.077,�쓌,4.1,��
2022/04/22,16:10,0.151,0.140,0.220,0.211,0.219,0.118,0.076,�쓌,4.8,��
2022/04/22,16:20,0.150,0.139,0.219,0.213,0.217,0.120,0.077,��쓌,5.6,��
2022/04/22,16:30,0.151,0.138,0.218,0.212,0.216,0.119,0.076,��쓌,4.6,��
2022/04/22,16:40,0.151,0.139,0.219,0.213,0.220,0.119,0.078,��쓌,4.2,��
2022/04/22,16:50,0.151,0.140,0.218,0.213,0.218,0.120,0.076,��쓌,4.5,��
2022/04/22,17:00,0.152,0.139,0.220,0.212,0.216,0.118,0.077,��쓌,3.7,��
2022/04/22,17:10,0.151,0.138,0.219,0.214,0.219,0.119,0.077,��,3.6,��
2022/04/22,17:20,0.153,0.140,0.220,0.212,0.218,0.120,0.077,��,3.8,��
2022/04/22,17:30,0.151,0.139,0.217,0.213,0.217,0.119,0.077,��,3.9,��
2022/04/22,17:40,0.151,0.139,0.220,0.212,0.220,0.118,0.077,��,4.4,��
2022/04/22,17:50,0.152,0.139,0.219,0.214,0.217,0.119,0.077,��,3.6,��
2022/04/22,18:00,0.152,0.140,0.222,0.212,0.219,0.120,0.077,��,1.9,��
2022/04/22,18:10,0.152,0.139,0.219,0.212,0.217,0.119,0.077,��쐼,2.0,��
2022/04/22,18:20,0.150,0.139,0.220,0.211,0.219,0.120,0.078,��,2.0,��
2022/04/22,18:30,0.153,0.139,0.218,0.213,0.218,0.119,0.077,��쐼,2.2,��
2022/04/22,18:40,0.150,0.140,0.220,0.211,0.219,0.120,0.078,��,1.9,��
2022/04/22,18:50,0.153,0.139,0.218,0.213,0.219,0.120,0.076,��쓌,2.8,��
2022/04/22,19:00,0.150,0.139,0.221,0.213,0.217,0.120,0.077,��쓌,3.4,��
2022/04/22,19:10,0.152,0.140,0.219,0.213,0.219,0.119,0.076,��,3.0,��
2022/04/22,19:20,0.150,0.139,0.220,0.212,0.218,0.120,0.077,��쐼,2.5,��
2022/04/22,19:30,0.152,0.140,0.219,0.212,0.220,0.120,0.077,���쐼,3.0,��
2022/04/22,19:40,0.150,0.139,0.220,0.212,0.219,0.120,0.077,��,4.0,��
2022/04/22,19:50,0.152,0.140,0.218,0.213,0.219,0.120,0.077,��,3.3,��
2022/04/22,20:00,0.152,0.139,0.219,0.212,0.218,0.120,0.076,�쐼,2.2,��
2022/04/22,20:10,0.152,0.139,0.220,0.214,0.218,0.120,0.077,�쐼,1.8,��
2022/04/22,20:20,0.150,0.140,0.219,0.213,0.218,0.120,0.077,-,CALM,��
2022/04/22,20:30,0.153,0.139,0.219,0.213,0.218,0.120,0.077,���k��,0.8,��
2022/04/22,20:40,0.150,0.140,0.218,0.213,0.218,0.120,0.077,-,CALM,��
2022/04/22,20:50,0.153,0.139,0.220,0.212,0.218,0.120,0.077,�k��,1.4,��
2022/04/22,21:00,0.152,0.140,0.219,0.213,0.219,0.119,0.078,-,CALM,��
2022/04/22,21:10,0.152,0.140,0.219,0.213,0.219,0.119,0.078,��,1.5,��
2022/04/22,21:20,0.152,0.140,0.219,0.214,0.219,0.120,0.077,��쐼,1.7,��
2022/04/22,21:30,0.152,0.141,0.220,0.212,0.218,0.120,0.078,��,1.5,��
2022/04/22,21:40,0.151,0.139,0.220,0.213,0.221,0.121,0.077,��쐼,2.3,��
2022/04/22,21:50,0.151,0.140,0.220,0.213,0.218,0.120,0.078,��쐼,4.1,��
2022/04/22,22:00,0.153,0.139,0.220,0.213,0.220,0.120,0.077,��쐼,4.5,��
2022/04/22,22:10,0.152,0.139,0.219,0.214,0.218,0.121,0.077,�쐼,5.2,��
2022/04/22,22:20,0.152,0.140,0.219,0.213,0.218,0.119,0.077,�쐼,4.3,��
2022/04/22,22:30,0.151,0.140,0.220,0.212,0.217,0.120,0.077,�쐼,4.4,��
2022/04/22,22:40,0.153,0.140,0.220,0.213,0.220,0.120,0.076,�쐼,3.8,��
2022/04/22,22:50,0.151,0.139,0.220,0.214,0.218,0.120,0.077,�쐼,3.3,��
2022/04/22,23:00,0.153,0.139,0.220,0.213,0.220,0.122,0.076,�쐼,2.6,��
2022/04/22,23:10,0.151,0.140,0.221,0.215,0.218,0.120,0.077,�쐼,2.5,��
2022/04/22,23:20,0.153,0.139,0.220,0.213,0.218,0.121,0.078,���쐼,2.6,��
2022/04/22,23:30,0.152,0.140,0.219,0.214,0.218,0.119,0.078,��,3.3,��
2022/04/22,23:40,0.152,0.140,0.221,0.214,0.219,0.121,0.077,���쐼,3.1,��
2022/04/22,23:50,0.153,0.139,0.220,0.212,0.218,0.120,0.076,���쐼,3.5,��
